Year,Month,Day,Hour,Minute,Value (Times are PST for temperature in C)
2007,08,29,00,00,15.40
2007,08,29,00,01,15.40
2007,08,29,00,02,15.30
2007,08,29,00,03,15.30
2007,08,29,00,04,15.30
2007,08,29,00,05,15.30
2007,08,29,00,06,15.30
2007,08,29,00,07,15.30
2007,08,29,00,08,15.30
2007,08,29,00,09,15.30
2007,08,29,00,10,15.30
2007,08,29,00,11,15.30
2007,08,29,00,12,15.30
2007,08,29,00,13,15.30
2007,08,29,00,14,15.30
2007,08,29,00,15,15.30
2007,08,29,00,16,15.30
2007,08,29,00,17,15.30
2007,08,29,00,18,15.30
2007,08,29,00,19,15.30
2007,08,29,00,20,15.30
2007,08,29,00,21,15.30
2007,08,29,00,22,15.30
2007,08,29,00,23,15.30
2007,08,29,00,24,15.30
2007,08,29,00,25,15.30
2007,08,29,00,26,15.30
2007,08,29,00,27,15.30
2007,08,29,00,28,15.30
2007,08,29,00,29,15.30
2007,08,29,00,30,15.20
2007,08,29,00,31,15.20
2007,08,29,00,32,15.30
2007,08,29,00,33,15.30
2007,08,29,00,34,15.30
2007,08,29,00,35,15.30
2007,08,29,00,36,15.30
2007,08,29,00,37,15.30
2007,08,29,00,38,15.30
2007,08,29,00,39,15.20
2007,08,29,00,40,15.20
2007,08,29,00,41,15.20
2007,08,29,00,42,15.30
2007,08,29,00,43,15.20
2007,08,29,00,44,15.20
2007,08,29,00,45,15.20
2007,08,29,00,46,15.20
2007,08,29,00,47,15.20
2007,08,29,00,48,15.30
2007,08,29,00,49,15.30
2007,08,29,00,50,15.30
2007,08,29,00,51,15.20
2007,08,29,00,52,15.20
2007,08,29,00,53,15.20
2007,08,29,00,54,15.20
2007,08,29,00,55,15.20
2007,08,29,00,56,15.20
2007,08,29,00,57,15.20
2007,08,29,00,58,15.10
2007,08,29,00,59,15.10
2007,08,29,01,00,15.00
2007,08,29,01,01,15.00
2007,08,29,01,02,15.00
2007,08,29,01,03,15.00
2007,08,29,01,04,15.00
2007,08,29,01,05,15.00
2007,08,29,01,06,15.00
2007,08,29,01,07,15.00
2007,08,29,01,08,15.00
2007,08,29,01,09,15.00
2007,08,29,01,10,15.00
2007,08,29,01,11,15.00
2007,08,29,01,12,15.00
2007,08,29,01,13,15.00
2007,08,29,01,14,15.00
2007,08,29,01,15,15.00
2007,08,29,01,16,15.00
2007,08,29,01,17,15.00
2007,08,29,01,18,15.00
2007,08,29,01,19,15.00
2007,08,29,01,20,14.90
2007,08,29,01,21,14.90
2007,08,29,01,22,14.90
2007,08,29,01,23,14.80
2007,08,29,01,24,14.80
2007,08,29,01,25,14.80
2007,08,29,01,26,14.70
2007,08,29,01,27,14.70
2007,08,29,01,28,14.70
2007,08,29,01,29,14.70
2007,08,29,01,30,14.70
2007,08,29,01,31,14.70
2007,08,29,01,32,14.70
2007,08,29,01,33,14.70
2007,08,29,01,34,14.60
2007,08,29,01,35,14.60
2007,08,29,01,36,14.60
2007,08,29,01,37,14.60
2007,08,29,01,38,14.60
2007,08,29,01,39,14.50
2007,08,29,01,40,14.50
2007,08,29,01,41,14.50
2007,08,29,01,42,14.40
2007,08,29,01,43,14.40
2007,08,29,01,44,14.40
2007,08,29,01,45,14.40
2007,08,29,01,46,14.40
2007,08,29,01,47,14.40
2007,08,29,01,48,14.40
2007,08,29,01,49,14.40
2007,08,29,01,50,14.30
2007,08,29,01,51,14.30
2007,08,29,01,52,14.30
2007,08,29,01,53,14.30
2007,08,29,01,54,14.30
2007,08,29,01,55,14.30
2007,08,29,01,56,14.30
2007,08,29,01,57,14.30
2007,08,29,01,58,14.30
2007,08,29,01,59,14.20
2007,08,29,02,00,14.20
2007,08,29,02,01,14.20
2007,08,29,02,02,14.20
2007,08,29,02,03,14.20
2007,08,29,02,04,14.20
2007,08,29,02,05,14.20
2007,08,29,02,06,14.20
2007,08,29,02,07,14.10
2007,08,29,02,08,14.10
2007,08,29,02,09,14.10
2007,08,29,02,10,14.10
2007,08,29,02,11,14.10
2007,08,29,02,12,14.10
2007,08,29,02,13,14.10
2007,08,29,02,14,14.00
2007,08,29,02,15,14.00
2007,08,29,02,16,14.00
2007,08,29,02,17,14.00
2007,08,29,02,18,14.00
2007,08,29,02,19,14.00
2007,08,29,02,20,14.00
2007,08,29,02,21,14.00
2007,08,29,02,22,14.00
2007,08,29,02,23,14.00
2007,08,29,02,24,13.90
2007,08,29,02,25,13.90
2007,08,29,02,26,13.90
2007,08,29,02,27,13.90
2007,08,29,02,28,13.90
2007,08,29,02,29,13.90
2007,08,29,02,30,13.90
2007,08,29,02,31,13.90
2007,08,29,02,32,13.80
2007,08,29,02,33,13.80
2007,08,29,02,34,13.80
2007,08,29,02,35,13.80
2007,08,29,02,36,13.80
2007,08,29,02,37,13.80
2007,08,29,02,38,13.80
2007,08,29,02,39,13.80
2007,08,29,02,40,13.80
2007,08,29,02,41,13.80
2007,08,29,02,42,13.70
2007,08,29,02,43,13.70
2007,08,29,02,44,13.70
2007,08,29,02,45,13.70
2007,08,29,02,46,13.70
2007,08,29,02,47,13.70
2007,08,29,02,48,13.70
2007,08,29,02,49,13.70
2007,08,29,02,50,13.70
2007,08,29,02,51,13.70
2007,08,29,02,52,13.70
2007,08,29,02,53,13.70
2007,08,29,02,54,13.70
2007,08,29,02,55,13.70
2007,08,29,02,56,13.70
2007,08,29,02,57,13.70
2007,08,29,02,58,13.70
2007,08,29,02,59,13.70
2007,08,29,03,00,13.70
2007,08,29,03,01,13.70
2007,08,29,03,02,13.70
2007,08,29,03,03,13.70
2007,08,29,03,04,13.70
2007,08,29,03,05,13.70
2007,08,29,03,06,13.70
2007,08,29,03,07,13.70
2007,08,29,03,08,13.70
2007,08,29,03,09,13.70
2007,08,29,03,10,13.70
2007,08,29,03,11,13.70
2007,08,29,03,12,13.70
2007,08,29,03,13,13.70
2007,08,29,03,14,13.70
2007,08,29,03,15,13.70
2007,08,29,03,16,13.70
2007,08,29,03,17,13.70
2007,08,29,03,18,13.70
2007,08,29,03,19,13.70
2007,08,29,03,20,13.70
2007,08,29,03,21,13.70
2007,08,29,03,22,13.60
2007,08,29,03,23,13.60
2007,08,29,03,24,13.60
2007,08,29,03,25,13.60
2007,08,29,03,26,13.50
2007,08,29,03,27,13.50
2007,08,29,03,28,13.50
2007,08,29,03,29,13.50
2007,08,29,03,30,13.50
2007,08,29,03,31,13.50
2007,08,29,03,32,13.40
2007,08,29,03,33,13.50
2007,08,29,03,34,13.40
2007,08,29,03,35,13.40
2007,08,29,03,36,13.40
2007,08,29,03,37,13.40
2007,08,29,03,38,13.40
2007,08,29,03,39,13.40
2007,08,29,03,40,13.40
2007,08,29,03,41,13.40
2007,08,29,03,42,13.40
2007,08,29,03,43,13.40
2007,08,29,03,44,13.40
2007,08,29,03,45,13.40
2007,08,29,03,46,13.40
2007,08,29,03,47,13.40
2007,08,29,03,48,13.40
2007,08,29,03,49,13.40
2007,08,29,03,50,13.40
2007,08,29,03,51,13.30
2007,08,29,03,52,13.30
2007,08,29,03,53,13.30
2007,08,29,03,54,13.20
2007,08,29,03,55,13.20
2007,08,29,03,56,13.20
2007,08,29,03,57,13.20
2007,08,29,03,58,13.20
2007,08,29,03,59,13.20
2007,08,29,04,00,13.20
2007,08,29,04,01,13.20
2007,08,29,04,02,13.20
2007,08,29,04,03,13.20
2007,08,29,04,04,13.10
2007,08,29,04,05,13.10
2007,08,29,04,06,13.10
2007,08,29,04,07,13.10
2007,08,29,04,08,13.10
2007,08,29,04,09,13.00
2007,08,29,04,10,13.00
2007,08,29,04,11,13.00
2007,08,29,04,12,13.00
2007,08,29,04,13,13.00
2007,08,29,04,14,13.00
2007,08,29,04,15,12.90
2007,08,29,04,16,12.90
2007,08,29,04,17,12.90
2007,08,29,04,18,12.90
2007,08,29,04,19,12.90
2007,08,29,04,20,12.90
2007,08,29,04,21,12.90
2007,08,29,04,22,12.90
2007,08,29,04,23,12.90
2007,08,29,04,24,12.90
2007,08,29,04,25,12.90
2007,08,29,04,26,12.90
2007,08,29,04,27,12.90
2007,08,29,04,28,12.90
2007,08,29,04,29,12.90
2007,08,29,04,30,12.80
2007,08,29,04,31,12.80
2007,08,29,04,32,12.80
2007,08,29,04,33,12.80
2007,08,29,04,34,12.80
2007,08,29,04,35,12.80
2007,08,29,04,36,12.80
2007,08,29,04,37,12.80
2007,08,29,04,38,12.80
2007,08,29,04,39,12.80
2007,08,29,04,40,12.70
2007,08,29,04,41,12.70
2007,08,29,04,42,12.70
2007,08,29,04,43,12.70
2007,08,29,04,44,12.70
2007,08,29,04,45,12.70
2007,08,29,04,46,12.70
2007,08,29,04,47,12.70
2007,08,29,04,48,12.70
2007,08,29,04,49,12.70
2007,08,29,04,50,12.70
2007,08,29,04,51,12.70
2007,08,29,04,52,12.70
2007,08,29,04,53,12.80
2007,08,29,04,54,12.80
2007,08,29,04,55,12.80
2007,08,29,04,56,12.80
2007,08,29,04,57,12.80
2007,08,29,04,58,12.80
2007,08,29,04,59,12.80
2007,08,29,05,00,12.80
2007,08,29,05,01,12.80
2007,08,29,05,02,12.80
2007,08,29,05,03,12.80
2007,08,29,05,04,12.80
2007,08,29,05,05,12.80
2007,08,29,05,06,12.80
2007,08,29,05,07,12.80
2007,08,29,05,08,12.80
2007,08,29,05,09,12.80
2007,08,29,05,10,12.80
2007,08,29,05,11,12.80
2007,08,29,05,12,12.70
2007,08,29,05,13,12.70
2007,08,29,05,14,12.70
2007,08,29,05,15,12.70
2007,08,29,05,16,12.70
2007,08,29,05,17,12.70
2007,08,29,05,18,12.70
2007,08,29,05,19,12.70
2007,08,29,05,20,12.70
2007,08,29,05,21,12.70
2007,08,29,05,22,12.70
2007,08,29,05,23,12.70
2007,08,29,05,24,12.70
2007,08,29,05,25,12.70
2007,08,29,05,26,12.60
2007,08,29,05,27,12.60
2007,08,29,05,28,12.60
2007,08,29,05,29,12.60
2007,08,29,05,30,12.60
2007,08,29,05,31,12.60
2007,08,29,05,32,12.60
2007,08,29,05,33,12.60
2007,08,29,05,34,12.60
2007,08,29,05,35,12.60
2007,08,29,05,36,12.60
2007,08,29,05,37,12.60
2007,08,29,05,38,12.60
2007,08,29,05,39,12.60
2007,08,29,05,40,12.60
2007,08,29,05,41,12.60
2007,08,29,05,42,12.60
2007,08,29,05,43,12.60
2007,08,29,05,44,12.70
2007,08,29,05,45,12.60
2007,08,29,05,46,12.60
2007,08,29,05,47,12.60
2007,08,29,05,48,12.60
2007,08,29,05,49,12.60
2007,08,29,05,50,12.60
2007,08,29,05,51,12.60
2007,08,29,05,52,12.60
2007,08,29,05,53,12.60
2007,08,29,05,54,12.60
2007,08,29,05,55,12.50
2007,08,29,05,56,12.50
2007,08,29,05,57,12.50
2007,08,29,05,58,12.50
2007,08,29,05,59,12.40
2007,08,29,06,00,12.40
2007,08,29,06,01,12.40
2007,08,29,06,02,12.40
2007,08,29,06,03,12.40
2007,08,29,06,04,12.40
2007,08,29,06,05,12.40
2007,08,29,06,06,12.40
2007,08,29,06,07,12.30
2007,08,29,06,08,12.30
2007,08,29,06,09,12.30
2007,08,29,06,10,12.30
2007,08,29,06,11,12.30
2007,08,29,06,12,12.30
2007,08,29,06,13,12.30
2007,08,29,06,14,12.30
2007,08,29,06,15,12.30
2007,08,29,06,16,12.30
2007,08,29,06,17,12.30
2007,08,29,06,18,12.30
2007,08,29,06,19,12.30
2007,08,29,06,20,12.30
2007,08,29,06,21,12.30
2007,08,29,06,22,12.30
2007,08,29,06,23,12.30
2007,08,29,06,24,12.30
2007,08,29,06,25,12.30
2007,08,29,06,26,12.30
2007,08,29,06,27,12.20
2007,08,29,06,28,12.20
2007,08,29,06,29,12.20
2007,08,29,06,30,12.20
2007,08,29,06,31,12.20
2007,08,29,06,32,12.20
2007,08,29,06,33,12.20
2007,08,29,06,34,12.20
2007,08,29,06,35,12.20
2007,08,29,06,36,12.20
2007,08,29,06,37,12.20
2007,08,29,06,38,12.20
2007,08,29,06,39,12.20
2007,08,29,06,40,12.20
2007,08,29,06,41,12.20
2007,08,29,06,42,12.20
2007,08,29,06,43,12.20
2007,08,29,06,44,12.20
2007,08,29,06,45,12.20
2007,08,29,06,46,12.20
2007,08,29,06,47,12.20
2007,08,29,06,48,12.20
2007,08,29,06,49,12.20
2007,08,29,06,50,12.20
2007,08,29,06,51,12.20
2007,08,29,06,52,12.20
2007,08,29,06,53,12.20
2007,08,29,06,54,12.20
2007,08,29,06,55,12.20
2007,08,29,06,56,12.30
2007,08,29,06,57,12.30
2007,08,29,06,58,12.30
2007,08,29,06,59,12.30
2007,08,29,07,00,12.30
2007,08,29,07,01,12.30
2007,08,29,07,02,12.30
2007,08,29,07,03,12.30
2007,08,29,07,04,12.30
2007,08,29,07,05,12.30
2007,08,29,07,06,12.30
2007,08,29,07,07,12.30
2007,08,29,07,08,12.30
2007,08,29,07,09,12.30
2007,08,29,07,10,12.30
2007,08,29,07,11,12.40
2007,08,29,07,12,12.40
2007,08,29,07,13,12.50
2007,08,29,07,14,12.50
2007,08,29,07,15,12.60
2007,08,29,07,16,12.60
2007,08,29,07,17,12.70
2007,08,29,07,18,12.80
2007,08,29,07,19,12.80
2007,08,29,07,20,12.90
2007,08,29,07,21,12.90
2007,08,29,07,22,13.00
2007,08,29,07,23,13.10
2007,08,29,07,24,13.10
2007,08,29,07,25,13.20
2007,08,29,07,26,13.20
2007,08,29,07,27,13.30
2007,08,29,07,28,13.40
2007,08,29,07,29,13.50
2007,08,29,07,30,13.60
2007,08,29,07,31,13.60
2007,08,29,07,32,13.70
2007,08,29,07,33,13.70
2007,08,29,07,34,13.80
2007,08,29,07,35,13.80
2007,08,29,07,36,13.90
2007,08,29,07,37,13.90
2007,08,29,07,38,13.90
2007,08,29,07,39,14.00
2007,08,29,07,40,14.00
2007,08,29,07,41,14.10
2007,08,29,07,42,14.10
2007,08,29,07,43,14.20
2007,08,29,07,44,14.30
2007,08,29,07,45,14.40
2007,08,29,07,46,14.50
2007,08,29,07,47,14.60
2007,08,29,07,48,14.80
2007,08,29,07,49,14.90
2007,08,29,07,50,15.00
2007,08,29,07,51,15.00
2007,08,29,07,52,15.00
2007,08,29,07,53,15.20
2007,08,29,07,54,15.20
2007,08,29,07,55,15.30
2007,08,29,07,56,15.40
2007,08,29,07,57,15.40
2007,08,29,07,58,15.40
2007,08,29,07,59,15.50
2007,08,29,08,00,15.50
2007,08,29,08,01,15.50
2007,08,29,08,02,15.50
2007,08,29,08,03,15.60
2007,08,29,08,04,15.60
2007,08,29,08,05,15.60
2007,08,29,08,06,15.60
2007,08,29,08,07,15.70
2007,08,29,08,08,15.70
2007,08,29,08,09,15.80
2007,08,29,08,10,15.80
2007,08,29,08,11,15.90
2007,08,29,08,12,16.00
2007,08,29,08,13,16.10
2007,08,29,08,14,16.20
2007,08,29,08,15,16.30
2007,08,29,08,16,16.40
2007,08,29,08,17,16.50
2007,08,29,08,18,16.60
2007,08,29,08,19,16.60
2007,08,29,08,20,16.70
2007,08,29,08,21,16.70
2007,08,29,08,22,16.70
2007,08,29,08,23,16.80
2007,08,29,08,24,16.90
2007,08,29,08,25,17.00
2007,08,29,08,26,17.10
2007,08,29,08,27,17.10
2007,08,29,08,28,17.20
2007,08,29,08,29,17.30
2007,08,29,08,30,17.40
2007,08,29,08,31,17.50
2007,08,29,08,32,17.70
2007,08,29,08,33,17.80
2007,08,29,08,34,17.80
2007,08,29,08,35,17.90
2007,08,29,08,36,17.90
2007,08,29,08,37,17.90
2007,08,29,08,38,17.90
2007,08,29,08,39,17.90
2007,08,29,08,40,17.90
2007,08,29,08,41,17.90
2007,08,29,08,42,17.90
2007,08,29,08,43,17.90
2007,08,29,08,44,17.90
2007,08,29,08,45,17.90
2007,08,29,08,46,18.00
2007,08,29,08,47,18.00
2007,08,29,08,48,18.00
2007,08,29,08,49,18.10
2007,08,29,08,50,18.10
2007,08,29,08,51,18.10
2007,08,29,08,52,18.10
2007,08,29,08,53,18.20
2007,08,29,08,54,18.20
2007,08,29,08,55,18.20
2007,08,29,08,56,18.30
2007,08,29,08,57,18.30
2007,08,29,08,58,18.30
2007,08,29,08,59,18.30
2007,08,29,09,00,18.40
2007,08,29,09,01,18.40
2007,08,29,09,02,18.40
2007,08,29,09,03,18.40
2007,08,29,09,04,18.40
2007,08,29,09,05,18.40
2007,08,29,09,06,18.50
2007,08,29,09,07,18.50
2007,08,29,09,08,18.50
2007,08,29,09,09,18.60
2007,08,29,09,10,18.60
2007,08,29,09,11,18.60
2007,08,29,09,12,18.50
2007,08,29,09,13,18.50
2007,08,29,09,14,18.50
2007,08,29,09,15,18.60
2007,08,29,09,16,18.60
2007,08,29,09,17,18.60
2007,08,29,09,18,18.60
2007,08,29,09,19,18.60
2007,08,29,09,20,18.70
2007,08,29,09,21,18.70
2007,08,29,09,22,18.70
2007,08,29,09,23,18.80
2007,08,29,09,24,18.80
2007,08,29,09,25,18.80
2007,08,29,09,26,18.80
2007,08,29,09,27,18.80
2007,08,29,09,28,18.80
2007,08,29,09,29,18.80
2007,08,29,09,30,18.80
2007,08,29,09,31,18.80
2007,08,29,09,32,18.90
2007,08,29,09,33,18.90
2007,08,29,09,34,18.90
2007,08,29,09,35,18.80
2007,08,29,09,36,18.80
2007,08,29,09,37,18.70
2007,08,29,09,38,18.60
2007,08,29,09,39,18.60
2007,08,29,09,40,18.60
2007,08,29,09,41,18.60
2007,08,29,09,42,18.70
2007,08,29,09,43,18.80
2007,08,29,09,44,18.80
2007,08,29,09,45,18.90
2007,08,29,09,46,18.90
2007,08,29,09,47,18.90
2007,08,29,09,48,18.80
2007,08,29,09,49,18.80
2007,08,29,09,50,18.80
2007,08,29,09,51,18.80
2007,08,29,09,52,18.90
2007,08,29,09,53,18.90
2007,08,29,09,54,18.90
2007,08,29,09,55,18.90
2007,08,29,09,56,19.00
2007,08,29,09,57,19.00
2007,08,29,09,58,19.00
2007,08,29,09,59,19.10
2007,08,29,10,00,19.10
2007,08,29,10,01,19.20
2007,08,29,10,02,19.30
2007,08,29,10,03,19.30
2007,08,29,10,04,19.40
2007,08,29,10,05,19.50
2007,08,29,10,06,19.50
2007,08,29,10,07,19.60
2007,08,29,10,08,19.60
2007,08,29,10,09,19.70
2007,08,29,10,10,19.70
2007,08,29,10,11,19.70
2007,08,29,10,12,19.70
2007,08,29,10,13,19.70
2007,08,29,10,14,19.70
2007,08,29,10,15,19.80
2007,08,29,10,16,19.80
2007,08,29,10,17,19.90
2007,08,29,10,18,19.90
2007,08,29,10,19,19.80
2007,08,29,10,20,19.90
2007,08,29,10,21,19.90
2007,08,29,10,22,19.90
2007,08,29,10,23,20.00
2007,08,29,10,24,20.10
2007,08,29,10,25,20.20
2007,08,29,10,26,20.30
2007,08,29,10,27,20.30
2007,08,29,10,28,20.40
2007,08,29,10,29,20.50
2007,08,29,10,30,20.60
2007,08,29,10,31,20.70
2007,08,29,10,32,20.70
2007,08,29,10,33,20.80
2007,08,29,10,34,20.90
2007,08,29,10,35,20.90
2007,08,29,10,36,21.00
2007,08,29,10,37,21.00
2007,08,29,10,38,21.10
2007,08,29,10,39,21.10
2007,08,29,10,40,21.20
2007,08,29,10,41,21.20
2007,08,29,10,42,21.10
2007,08,29,10,43,21.00
2007,08,29,10,44,21.00
2007,08,29,10,45,20.90
2007,08,29,10,46,20.80
2007,08,29,10,47,20.80
2007,08,29,10,48,20.80
2007,08,29,10,49,20.90
2007,08,29,10,50,21.00
2007,08,29,10,51,21.10
2007,08,29,10,52,21.30
2007,08,29,10,53,21.30
2007,08,29,10,54,21.40
2007,08,29,10,55,21.50
2007,08,29,10,56,21.50
2007,08,29,10,57,21.50
2007,08,29,10,58,21.50
2007,08,29,10,59,21.50
2007,08,29,11,00,21.40
2007,08,29,11,01,21.40
2007,08,29,11,02,21.40
2007,08,29,11,03,21.40
2007,08,29,11,04,21.50
2007,08,29,11,05,21.60
2007,08,29,11,06,21.70
2007,08,29,11,07,21.80
2007,08,29,11,08,21.90
2007,08,29,11,09,22.00
2007,08,29,11,10,22.10
2007,08,29,11,11,22.10
2007,08,29,11,12,22.10
2007,08,29,11,13,22.10
2007,08,29,11,14,22.10
2007,08,29,11,15,22.10
2007,08,29,11,16,22.10
2007,08,29,11,17,22.10
2007,08,29,11,18,22.20
2007,08,29,11,19,22.20
2007,08,29,11,20,22.30
2007,08,29,11,21,22.30
2007,08,29,11,22,22.30
2007,08,29,11,23,22.20
2007,08,29,11,24,22.20
2007,08,29,11,25,22.10
2007,08,29,11,26,22.10
2007,08,29,11,27,22.00
2007,08,29,11,28,22.00
2007,08,29,11,29,21.90
2007,08,29,11,30,21.90
2007,08,29,11,31,21.90
2007,08,29,11,32,22.00
2007,08,29,11,33,21.90
2007,08,29,11,34,21.90
2007,08,29,11,35,21.80
2007,08,29,11,36,21.80
2007,08,29,11,37,21.80
2007,08,29,11,38,21.70
2007,08,29,11,39,21.70
2007,08,29,11,40,21.70
2007,08,29,11,41,21.80
2007,08,29,11,42,21.80
2007,08,29,11,43,21.80
2007,08,29,11,44,21.90
2007,08,29,11,45,22.00
2007,08,29,11,46,22.00
2007,08,29,11,47,21.90
2007,08,29,11,48,21.90
2007,08,29,11,49,21.90
2007,08,29,11,50,21.90
2007,08,29,11,51,22.00
2007,08,29,11,52,22.20
2007,08,29,11,53,22.30
2007,08,29,11,54,22.40
2007,08,29,11,55,22.50
2007,08,29,11,56,22.60
2007,08,29,11,57,22.70
2007,08,29,11,58,22.70
2007,08,29,11,59,22.60
2007,08,29,12,00,22.60
2007,08,29,12,01,22.50
2007,08,29,12,02,22.50
2007,08,29,12,03,22.60
2007,08,29,12,04,22.60
2007,08,29,12,05,22.60
2007,08,29,12,06,22.60
2007,08,29,12,07,22.60
2007,08,29,12,08,22.60
2007,08,29,12,09,22.50
2007,08,29,12,10,22.40
2007,08,29,12,11,22.40
2007,08,29,12,12,22.30
2007,08,29,12,13,22.30
2007,08,29,12,14,22.40
2007,08,29,12,15,22.40
2007,08,29,12,16,22.50
2007,08,29,12,17,22.60
2007,08,29,12,18,22.60
2007,08,29,12,19,22.60
2007,08,29,12,20,22.60
2007,08,29,12,21,22.60
2007,08,29,12,22,22.50
2007,08,29,12,23,22.60
2007,08,29,12,24,22.50
2007,08,29,12,25,22.50
2007,08,29,12,26,22.60
2007,08,29,12,27,22.70
2007,08,29,12,28,22.70
2007,08,29,12,29,22.80
2007,08,29,12,30,22.90
2007,08,29,12,31,23.10
2007,08,29,12,32,23.20
2007,08,29,12,33,23.40
2007,08,29,12,34,23.50
2007,08,29,12,35,23.60
2007,08,29,12,36,23.70
2007,08,29,12,37,23.80
2007,08,29,12,38,23.80
2007,08,29,12,39,23.80
2007,08,29,12,40,23.80
2007,08,29,12,41,23.70
2007,08,29,12,42,23.70
2007,08,29,12,43,23.70
2007,08,29,12,44,23.70
2007,08,29,12,45,23.60
2007,08,29,12,46,23.60
2007,08,29,12,47,23.50
2007,08,29,12,48,23.50
2007,08,29,12,49,23.50
2007,08,29,12,50,23.50
2007,08,29,12,51,23.60
2007,08,29,12,52,23.70
2007,08,29,12,53,23.70
2007,08,29,12,54,23.70
2007,08,29,12,55,23.70
2007,08,29,12,56,23.70
2007,08,29,12,57,23.70
2007,08,29,12,58,23.60
2007,08,29,12,59,23.40
2007,08,29,13,00,23.40
2007,08,29,13,01,23.30
2007,08,29,13,02,23.30
2007,08,29,13,03,23.40
2007,08,29,13,04,23.50
2007,08,29,13,05,23.60
2007,08,29,13,06,23.70
2007,08,29,13,07,23.70
2007,08,29,13,08,23.80
2007,08,29,13,09,23.90
2007,08,29,13,10,24.00
2007,08,29,13,11,24.00
2007,08,29,13,12,24.10
2007,08,29,13,13,24.20
2007,08,29,13,14,24.20
2007,08,29,13,15,24.20
2007,08,29,13,16,24.20
2007,08,29,13,17,24.10
2007,08,29,13,18,24.10
2007,08,29,13,19,24.10
2007,08,29,13,20,24.20
2007,08,29,13,21,24.10
2007,08,29,13,22,24.10
2007,08,29,13,23,24.00
2007,08,29,13,24,24.00
2007,08,29,13,25,24.10
2007,08,29,13,26,24.10
2007,08,29,13,27,24.10
2007,08,29,13,28,24.20
2007,08,29,13,29,24.20
2007,08,29,13,30,24.20
2007,08,29,13,31,24.30
2007,08,29,13,32,24.30
2007,08,29,13,33,24.30
2007,08,29,13,34,24.30
2007,08,29,13,35,24.40
2007,08,29,13,36,24.50
2007,08,29,13,37,24.60
2007,08,29,13,38,24.70
2007,08,29,13,39,24.80
2007,08,29,13,40,24.90
2007,08,29,13,41,25.10
2007,08,29,13,42,25.10
2007,08,29,13,43,25.20
2007,08,29,13,44,25.20
2007,08,29,13,45,25.30
2007,08,29,13,46,25.40
2007,08,29,13,47,25.50
2007,08,29,13,48,25.50
2007,08,29,13,49,25.50
2007,08,29,13,50,25.60
2007,08,29,13,51,25.70
2007,08,29,13,52,25.70
2007,08,29,13,53,25.70
2007,08,29,13,54,25.70
2007,08,29,13,55,25.70
2007,08,29,13,56,25.70
2007,08,29,13,57,25.70
2007,08,29,13,58,25.70
2007,08,29,13,59,25.60
2007,08,29,14,00,25.60
2007,08,29,14,01,25.60
2007,08,29,14,02,25.60
2007,08,29,14,03,25.60
2007,08,29,14,04,25.60
2007,08,29,14,05,25.70
2007,08,29,14,06,25.80
2007,08,29,14,07,25.80
2007,08,29,14,08,25.70
2007,08,29,14,09,25.70
2007,08,29,14,10,25.60
2007,08,29,14,11,25.60
2007,08,29,14,12,25.50
2007,08,29,14,13,25.60
2007,08,29,14,14,25.60
2007,08,29,14,15,25.60
2007,08,29,14,16,25.70
2007,08,29,14,17,25.70
2007,08,29,14,18,25.80
2007,08,29,14,19,25.80
2007,08,29,14,20,25.80
2007,08,29,14,21,25.90
2007,08,29,14,22,25.90
2007,08,29,14,23,26.00
2007,08,29,14,24,26.10
2007,08,29,14,25,26.10
2007,08,29,14,26,26.10
2007,08,29,14,27,26.00
2007,08,29,14,28,26.00
2007,08,29,14,29,26.10
2007,08,29,14,30,26.10
2007,08,29,14,31,26.20
2007,08,29,14,32,26.30
2007,08,29,14,33,26.30
2007,08,29,14,34,26.40
2007,08,29,14,35,26.40
2007,08,29,14,36,26.40
2007,08,29,14,37,26.40
2007,08,29,14,38,26.30
2007,08,29,14,39,26.30
2007,08,29,14,40,26.30
2007,08,29,14,41,26.10
2007,08,29,14,42,26.10
2007,08,29,14,43,26.10
2007,08,29,14,44,26.10
2007,08,29,14,45,26.10
2007,08,29,14,46,26.10
2007,08,29,14,47,26.10
2007,08,29,14,48,26.10
2007,08,29,14,49,26.00
2007,08,29,14,50,26.00
2007,08,29,14,51,26.00
2007,08,29,14,52,26.00
2007,08,29,14,53,26.10
2007,08,29,14,54,26.20
2007,08,29,14,55,26.30
2007,08,29,14,56,26.40
2007,08,29,14,57,26.50
2007,08,29,14,58,26.60
2007,08,29,14,59,26.60
2007,08,29,15,00,26.70
2007,08,29,15,01,26.70
2007,08,29,15,02,26.70
2007,08,29,15,03,26.70
2007,08,29,15,04,26.80
2007,08,29,15,05,26.80
2007,08,29,15,06,26.80
2007,08,29,15,07,26.90
2007,08,29,15,08,26.80
2007,08,29,15,09,26.90
2007,08,29,15,10,26.90
2007,08,29,15,11,27.00
2007,08,29,15,12,27.10
2007,08,29,15,13,27.20
2007,08,29,15,14,27.20
2007,08,29,15,15,27.20
2007,08,29,15,16,27.30
2007,08,29,15,17,27.30
2007,08,29,15,18,27.30
2007,08,29,15,19,27.20
2007,08,29,15,20,27.20
2007,08,29,15,21,27.20
2007,08,29,15,22,27.30
2007,08,29,15,23,27.30
2007,08,29,15,24,27.50
2007,08,29,15,25,27.60
2007,08,29,15,26,27.70
2007,08,29,15,27,27.70
2007,08,29,15,28,27.60
2007,08,29,15,29,27.40
2007,08,29,15,30,27.20
2007,08,29,15,31,27.00
2007,08,29,15,32,26.90
2007,08,29,15,33,26.80
2007,08,29,15,34,26.70
2007,08,29,15,35,26.60
2007,08,29,15,36,26.50
2007,08,29,15,37,26.40
2007,08,29,15,38,26.30
2007,08,29,15,39,26.30
2007,08,29,15,40,26.20
2007,08,29,15,41,26.20
2007,08,29,15,42,26.20
2007,08,29,15,43,26.20
2007,08,29,15,44,26.30
2007,08,29,15,45,26.30
2007,08,29,15,46,26.40
2007,08,29,15,47,26.40
2007,08,29,15,48,26.50
2007,08,29,15,49,26.60
2007,08,29,15,50,26.70
2007,08,29,15,51,26.90
2007,08,29,15,52,27.00
2007,08,29,15,53,27.00
2007,08,29,15,54,27.00
2007,08,29,15,55,27.00
2007,08,29,15,56,27.10
2007,08,29,15,57,27.20
2007,08,29,15,58,27.20
2007,08,29,15,59,27.30
2007,08,29,16,00,27.40
2007,08,29,16,01,27.50
2007,08,29,16,02,27.60
2007,08,29,16,03,27.70
2007,08,29,16,04,27.70
2007,08,29,16,05,27.70
2007,08,29,16,06,27.80
2007,08,29,16,07,27.80
2007,08,29,16,08,27.70
2007,08,29,16,09,27.70
2007,08,29,16,10,27.70
2007,08,29,16,11,27.80
2007,08,29,16,12,27.80
2007,08,29,16,13,27.90
2007,08,29,16,14,27.90
2007,08,29,16,15,28.00
2007,08,29,16,16,28.00
2007,08,29,16,17,28.10
2007,08,29,16,18,28.00
2007,08,29,16,19,28.00
2007,08,29,16,20,28.00
2007,08,29,16,21,28.00
2007,08,29,16,22,27.90
2007,08,29,16,23,27.90
2007,08,29,16,24,27.90
2007,08,29,16,25,27.80
2007,08,29,16,26,27.90
2007,08,29,16,27,27.90
2007,08,29,16,28,28.00
2007,08,29,16,29,28.00
2007,08,29,16,30,28.10
2007,08,29,16,31,28.20
2007,08,29,16,32,28.20
2007,08,29,16,33,28.30
2007,08,29,16,34,28.30
2007,08,29,16,35,28.30
2007,08,29,16,36,28.30
2007,08,29,16,37,28.20
2007,08,29,16,38,28.10
2007,08,29,16,39,28.00
2007,08,29,16,40,27.80
2007,08,29,16,41,27.60
2007,08,29,16,42,27.30
2007,08,29,16,43,27.10
2007,08,29,16,44,26.90
2007,08,29,16,45,26.60
2007,08,29,16,46,26.40
2007,08,29,16,47,26.30
2007,08,29,16,48,26.00
2007,08,29,16,49,25.90
2007,08,29,16,50,25.90
2007,08,29,16,51,25.90
2007,08,29,16,52,25.80
2007,08,29,16,53,25.70
2007,08,29,16,54,25.60
2007,08,29,16,55,25.40
2007,08,29,16,56,25.20
2007,08,29,16,57,25.10
2007,08,29,16,58,25.00
2007,08,29,16,59,24.90
2007,08,29,17,00,24.80
2007,08,29,17,01,24.70
2007,08,29,17,02,24.60
2007,08,29,17,03,24.50
2007,08,29,17,04,24.40
2007,08,29,17,05,24.20
2007,08,29,17,06,24.10
2007,08,29,17,07,24.00
2007,08,29,17,08,24.00
2007,08,29,17,09,24.00
2007,08,29,17,10,24.00
2007,08,29,17,11,24.10
2007,08,29,17,12,24.10
2007,08,29,17,13,24.10
2007,08,29,17,14,24.20
2007,08,29,17,15,24.20
2007,08,29,17,16,24.30
2007,08,29,17,17,24.40
2007,08,29,17,18,24.50
2007,08,29,17,19,24.60